User: anonymous   Login
Location: Unspecified
(0.0000°N, 0.0000°E)
Time: 17:08:01
(UTC+00:00)
Language:

APRIZESAT 2 (LATINSAT D) - Orbit

View from above orbital plane
View from above orbital plane
View from above satellite
View from above satellite

Ground track
Ground track

The orbit data is extracted from the following two-line orbital elements,

1 28366U 04025A   21025.38943275  .00000023  00000-0  20696-4 0  9999
2 28366  98.2392 273.2954 0108739  61.8027 299.4091 14.36726093868865
Epoch (UTC): 25 January 2021 09:20:46
Eccentricity: 0.0108739
inclination: 98.2392°
perigee height: 691 km
apogee height: 847 km
right ascension of ascending node: 273.2954°
argument of perigee: 61.8027°
revolutions per day: 14.36726093
mean anomaly at epoch: 299.4091°
orbit number at epoch: 86886

The dashed part of the orbit path shows where the satellite is in the earth's shadow,  

DLR